sat.trackr.live / text

‹ back to catalog

STARLINK-3501

NORAD 51748 · 2022-016AL

PAYLOAD ACTIVE UNKNOWN

§ Identity

Operator
Country
US
Launch date
2022-02-21
Launch site
AFETR
Launch vehicle
Mass (kg)
RCS (m²)

Purposes: comms

External: N2YO · Heavens-Above · Gunter

§ Orbital elements

Epoch: 2026-05-24T19:38:02.695200Z

Period
95.44 min
Inclination
53.2144°
Eccentricity
0.0001264
Mean motion
15.08839705 rev/d
Perigee alt
538.9 km
Apogee alt
540.6 km
Semi-major
6,917.9 km
B*
5.6830e-5
RAAN
327.3675°
Arg perigee
91.7077°
Mean anomaly
268.4060°
Rev number
23,519

§ Raw data

STARLINK-35011 51748U 22016AL  26144.81808675  .00000617  00000+0  56830-4 0  99952 51748  53.2144 327.3675 0001264  91.7077 268.4060 15.08839705235195

JSON: /api/v1/satellites/51748 · /tle

For live sub-satellite position, see the globe view (requires WebGL).

§ Visibility from observer

Set your observer location to see the next 7 days of passes ≥ 10°. The values pass through the URL so the page stays shareable.

No JS? Fill the form by hand. The geolocation button needs JavaScript.